This demonstration page uses our WeatherBlox Daily Observations layout. Learn more.

Hourly Observations for January 21, 2020

Temp ( °F °C ) Dew Point ( °F °C ) Humidity (%) Winds ( mph kmh ) Pressure ( in mb ) Visibility ( mi km ) Precip ( " mm )
12:53 am 00:53 Clear 21 -6.1 13 -10.6 71 71 NE 5 7 30.61 1037 10 16.0934 0 0
1:53 am 01:53 Cloudy 23 -5 15 -9.4 72 72 N 5 7 30.62 1037 10 16.0934 0 0
2:53 am 02:53 Cloudy 24 -4.4 14 -10 65 65 NE 7 11 30.63 1037 10 16.0934 0 0
3:53 am 03:53 undefined 24 -4.4 14 -10 65 65 NE 9 15 30.62 1037 10 16.0934 0 0
4:53 am 04:53 Cloudy 22 -5.6 12 -11.1 66 66 NNE 3 6 30.64 1038 10 16.0934 0 0
5:53 am 05:53 Cloudy 23 -5 13 -10.6 65 65 N 5 7 30.65 1038 10 16.0934 0 0
6:53 am 06:53 Cloudy 21 -6.1 13 -10.6 71 71 ENE 3 6 30.65 1038 10 16.0934 0 0
7:53 am 07:53 Mostly Cloudy 20 -6.7 12 -11.1 71 71 Calm 30.68 1039 10 16.0934 0 0
8:53 am 08:53 Mostly Cloudy 23 -5 15 -9.4 72 72 Calm 30.69 1039 10 16.0934 0 0
9:53 am 09:53 Mostly Sunny 24 -4.4 14 -10 65 65 ENE 5 7 30.7 1040 10 16.0934 0 0
10:53 am 10:53 Partly Cloudy 27 -2.8 13 -10.6 55 55 undefined N/A 30.7 1040 10 16.0934 0 0
11:53 am 11:53 Mostly Sunny 29 -1.7 13 -10.6 51 51 E 6 9 30.67 1039 10 16.0934 0 0
12:53 pm 12:53 Sunny 29 -1.7 13 -10.6 51 51 VRB 5 7 30.64 1038 10 16.0934 0 0
1:53 pm 13:53 Sunny 30 -1.1 13 -10.6 49 49 Calm 30.61 1037 10 16.0934 0 0
2:53 pm 14:53 Sunny 32 0 13 -10.6 45 45 NE 5 7 30.58 1036 10 16.0934 0 0
3:53 pm 15:53 Sunny 33 0.6 13 -10.6 43 43 NE 3 6 30.58 1036 10 16.0934 0 0
4:53 pm 16:53 Sunny 32 0 13 -10.6 45 45 NE 5 7 30.57 1035 10 16.0934 0 0
5:53 pm 17:53 Clear 28 -2.2 14 -10 56 56 ENE 3 6 30.58 1035 10 16.0934 0 0
6:53 pm 18:53 Clear 26 -3.3 15 -9.4 63 63 ENE 5 7 30.58 1036 10 16.0934 0 0
7:53 pm 19:53 Clear 25 -3.9 16 -8.9 69 69 Calm 30.59 1036 10 16.0934 0 0
8:53 pm 20:53 Clear 22 -5.6 17 -8.3 82 82 Calm 30.58 1036 10 16.0934 0 0
9:53 pm 21:53 Clear 21 -6.1 16 -8.9 81 81 Calm 30.57 1035 10 16.0934 0 0
10:53 pm 22:53 Clear 19 -7.2 15 -9.4 84 84 Calm 30.55 1034 10 16.0934 0 0
11:53 pm 23:53 Clear 18 -7.8 15 -9.4 88 88 Calm 30.52 1034 10 16.0934 0 0

Powered by AerisWeather